Regional Weather Roundup
Issued by NWS

Home | Current Version | Previous Version | Graphics & Text | Print | Product List | Glossary On
Versions: 1 2 3 4 5 6 7 8 9 10 11 12 13 14 15 16 17 18 19 20 21 22 23 24 25 26 27 28 29 30 31 32 33 34 35 36 37 38 39 40 41 42 43 44 45 46 47 48 49 50
000
ASUS43 KTOP 252108
RWRKS

WEATHER ROUNDUP FOR KANSAS
NATIONAL WEATHER SERVICE GOODLAND KS
400 PM CDT SUN JUN 25 2017

NOTE:  "FAIR" INDICATES FEW OR NO CLOUDS BELOW 12,000 FEET WITH NO
SIGNIFICANT WEATHER AND/OR OBSTRUCTIONS TO VISIBILITY.

KSZ001>006-013>018-027>032-041>047-252200-
NORTHWEST KANSAS

CITY           SKY/WX    TMP DP  RH WIND       PRES   REMARKS
GOODLAND       CLOUDY    61  57  87 E15       30.32F
HAYS           LGT RAIN  60  58  92 E12       30.31F
HILL CITY      CLOUDY    66  58  75 E9        30.31F
RUSSELL        MOSUNNY   61  56  83 NE15      30.31S
$$

KSZ061>065-074>080-084>089-252200-
SOUTHWEST KANSAS

CITY           SKY/WX    TMP DP  RH WIND       PRES   REMARKS
DODGE CITY     LGT RAIN  63  61  93 E15       30.29F
ELKHART          N/A     76  56  50 SE13        N/A
GARDEN CITY    CLOUDY    65  60  84 E21G28    30.28F
GREAT BEND     LGT RAIN  65  61  87 E13       30.32F
LIBERAL        CLOUDY    73  64  73 SE10      30.25F
PRATT          CLOUDY    65  56  71 N15       30.31F
$$

KSZ066>073-081>083-090>101-252200-
SOUTHEAST KANSAS

CITY           SKY/WX    TMP DP  RH WIND       PRES   REMARKS
CHANUTE        CLOUDY    81  59  47 N6        30.24F
COFFEYVILLE    CLOUDY    86  54  33 NW6       30.23S
HUTCHINSON     CLOUDY    70  59  68 N16       30.30R
MEDICINE LODGE   N/A     78  46  32 SW3       30.27R
NEWTON         PTSUNNY   73  58  59 N14       30.30R
PARSONS        MOSUNNY   84  53  34 CALM      30.24F
WICHITA INTL   LGT RAIN  72  64  76 W5        30.27R
WICHITA JABRA  LGT RAIN  69  63  81 N12       30.28R
WICHITA MCCONL RAIN      70  64  83 NE15      30.27R
WINFIELD       PTSUNNY   83  55  38 E5        30.24F
$$

KSZ007>012-019>026-033>040-048>060-102>105-252200-
NORTHEAST KANSAS

CITY           SKY/WX    TMP DP  RH WIND       PRES   REMARKS
CONCORDIA      CLOUDY    60  54  80 SE7       30.32F
EMPORIA        LGT RAIN  68  60  75 N8        30.30R
LAWRENCE       CLOUDY    71  50  47 N8        30.29R
MANHATTAN      LGT RAIN  64  57  78 CALM      30.33R
MARYSVILLE     CLOUDY    70  50  49 SW12      30.30F
OLATHE IND     CLOUDY    72  52  49 NW9       30.29R
OLATHE EXE     CLOUDY    73  48  41 N9        30.28R
SALINA         LGT RAIN  64  53  67 NE9       30.33F
TOPEKA BILLARD CLOUDY    69  53  56 N10       30.30S
TOPEKA FORBES  CLOUDY    71  56  58 N7        30.29F
$$



USA.gov is the U.S. government's official web portal to all federal, state and local government web resources and services.